This is the latest recevied weather packets stored in our database for station/object OE6JVE-13. If no packets are shown the sender has not sent any weather packets the latest 10 day(s).
| Time | Temp. | Humidity | Pressure | Rain* | Wind** | Luminosity | Snow |
|---|---|---|---|---|---|---|---|
| 1788687650 | 24.44° C | 44% | 1018.1 hPa | 0 mm | - | - | - |
| 1788687058 | 24.44° C | 44% | 1018.2 hPa | 0 mm | - | - | - |
| 1788686490 | 23.89° C | 49% | 1018.5 hPa | 0 mm | - | - | - |
| 1788685874 | 22.78° C | 53% | 1018.5 hPa | 0 mm | - | - | - |
| 1788685245 | 21.67° C | 57% | 1018.6 hPa | 0 mm | - | - | - |
| 1788684624 | 21.11° C | 61% | 1018.8 hPa | 0 mm | - | - | - |
| 1788684032 | 20° C | 67% | 1018.9 hPa | 0 mm | - | - | - |
| 1788683440 | 19.44° C | 69% | 1018.9 hPa | 0 mm | - | - | - |
| 1788682848 | 18.89° C | 73% | 1019 hPa | 0 mm | - | - | - |
| 1788682389 | 18.89° C | 72% | 1019 hPa | 0 mm | - | - | - |
| 1788681663 | 17.78° C | 78% | 1019.1 hPa | 0 mm | - | - | - |
| 1788681072 | 17.78° C | 83% | 1018.9 hPa | 0 mm | - | - | - |
| 1788680480 | 17.22° C | 98% | 1018.9 hPa | 0 mm | - | - | - |
| 1788679822 | 17.22° C | 99% | 1018.9 hPa | 0 mm | - | - | - |
| 1788679230 | 16.11° C | 99% | 1018.9 hPa | 0 mm | - | - | - |
| 1788678638 | 15.56° C | 99% | 1018.9 hPa | 0 mm | - | - | - |
| 1788678046 | 15.56° C | 99% | 1018.9 hPa | 0 mm | - | - | - |
| 1788677453 | 15.56° C | 99% | 1019 hPa | 0 mm | - | - | - |
| 1788676862 | 15.56° C | 99% | 1018.9 hPa | 0 mm | - | - | - |
| 1788676270 | 15.56° C | 99% | 1019 hPa | 0 mm | - | - | - |
| 1788675677 | 15.56° C | 99% | 1018.8 hPa | 0 mm | - | - | - |
| 1788675020 | 15° C | 99% | 1018.7 hPa | 0.25 mm | - | - | - |
| 1788674518 | 15° C | 99% | 1018.7 hPa | 0.25 mm | - | - | - |
| 1788673836 | 14.44° C | 99% | 1018.6 hPa | 0.25 mm | - | - | - |
| 1788673243 | 14.44° C | 99% | 1018.5 hPa | 0.25 mm | - | - | - |
* Rain latest hour (hover to see other rain measurements)
** Current wind speed in m/s (hover to see current wind gust speed)